loading
|

VANGUARD R/B, 16

Orbit data source: Space-Track

VANGUARD R/B, 16 is space debris originally from a launch on Mon, 17 Mar 1958 UTC launched from the Air Force Eastern Test Range (AFETR). Debris objects in space refer to the collection of defunct objects orbiting the Earth. Examples of debris include non-operational satellites, rocket bodies, and fragments generated from explosions, collisions, or faulty payload assembly.

Loading next visibility...
Loading greatness...
VANGUARD R/B details
Identifier
16, 1958-002A
Orbit
Active
Last TLE update1 day ago
Origin
Flag of USNRL (US)
ManufacturerGCR/Redlands
Mission statusUnknown
MissionUnknown
Bus & Motor33-KS-2800, Unknown motor
Mass22 kg wet, 22 kg dry
Launch date (UTC)
1958-03-17 (66 years ago)
Launch vehicleUnknown
Launch site
Air Force Eastern Test Range (AFETR)
Object type
Payload
Rocket body
Debris
Radar Cross Section0.22 m², Medium (>0.1 m² and < 1m²)

Expand to show TLE details & history

TLE from 1 day ago
0 VANGUARD R/B
1 00016U 58002A   24250.46752959  .00000777  00000-0  10285-2 0  9991
2 00016  34.2829  21.1196 2026009 261.0889  75.6423 10.49402024620753
Epoch: 2024-09-06T11:13Z
Definitive object data (Epoch: 2024-09-06T11:13:14.556Z)
Latitude-0.00001°
Longitude-133.23071°
Altitude2,347.454 km
Speed6.794 km/s
True Right ascension01h 24m 28s
True Declination0° 00' 00"
Sunlit
Object was in full shadow at TLE epoch
Predictive object data (real-time)
Latitude7.75428°
Longitude-125.34677°
Altitude2,620.122 km
Speed6.587 km/s
Apparent Right ascension00h 20m 02s
Apparent Declination-14° 02' 52"
Sunlit
Object is in daylight
Predictive observer data (real-time)
Local Sidereal Time09:09:03
Azimuth287.936° WNW
Elevation-41.002°
Doppler factor1
Orbital elements
Apogee4,223.343 km
Perigee651.303 km
Semi-major axis8,815.46 km
Eccentricity0.2026009
Inclination34.2829°
RAAN21.1196°
Arg. of periapsis261.0889°
True anomaly98.97007°
Mean anomaly75.6423°
Eccentric anomaly87.23698°
Mean motion2.62226 °/min
BSTAR0.0010285
Period137.29 mins
No data available
Other satellites on launch #2 in the year 1958 (1958-03-17 UTC)

VANGUARD R/B Visibility forecast

Observer location: 39.9160978°, -105.1181434

VANGUARD R/B is not visible in the next 10 days
Span
Click to sort rows by Start time (UTC) header in descending order
Start Az.
Max El. time (UTC)
Max El. Az.
Max El.
End time (UTC)
End Az.